TimeCST,TemperatureF,Dew PointF,Humidity,Sea Level PressureIn,VisibilityMPH,Wind Direction,Wind SpeedMPH,Gust SpeedMPH,PrecipitationIn,Events,Conditions,WindDirDegrees,DateUTC
12:15 AM,-0.4,-7.4,72,30.41,10.0,WNW,4.6,-,N/A,,Clear,290,2013-02-01 06:15:00
12:35 AM,-1.7,-8.1,74,30.41,10.0,WNW,4.6,-,N/A,,Clear,290,2013-02-01 06:35:00
12:55 AM,-1.3,-7.8,74,30.40,10.0,WNW,3.5,-,N/A,,Clear,300,2013-02-01 06:55:00
1:15 AM,-1.3,-7.8,74,30.41,10.0,West,3.5,-,N/A,,Clear,260,2013-02-01 07:15:00
1:35 AM,-1.1,-7.6,74,30.41,10.0,WSW,3.5,-,N/A,,Clear,250,2013-02-01 07:35:00
1:55 AM,-1.5,-7.8,75,30.40,10.0,Calm,Calm,-,N/A,,Clear,0,2013-02-01 07:55:00
2:15 AM,-0.9,-7.8,73,30.39,10.0,NNW,5.8,-,N/A,,Clear,340,2013-02-01 08:15:00
2:35 AM,-0.9,-7.4,74,30.38,10.0,Calm,Calm,-,N/A,,Clear,0,2013-02-01 08:35:00
2:55 AM,-2.4,-8.0,77,30.38,10.0,Calm,Calm,-,N/A,,Clear,0,2013-02-01 08:55:00
3:15 AM,-3.1,-8.5,78,30.37,10.0,Calm,Calm,-,N/A,,Clear,0,2013-02-01 09:15:00
3:35 AM,-1.3,-7.8,74,30.35,10.0,Calm,Calm,-,N/A,,Clear,0,2013-02-01 09:35:00
4:15 AM,-3.6,-8.9,78,30.38,10.0,WSW,3.5,-,N/A,,Scattered Clouds,240,2013-02-01 10:15:00
4:35 AM,-1.1,-6.2,79,30.37,10.0,Calm,Calm,-,N/A,,Mostly Cloudy,0,2013-02-01 10:35:00
4:55 AM,0.5,-5.1,77,30.38,10.0,SW,3.5,-,N/A,,Overcast,220,2013-02-01 10:55:00
5:15 AM,1.8,-4.4,76,30.35,10.0,South,4.6,-,N/A,,Overcast,180,2013-02-01 11:15:00
5:35 AM,2.3,-4.7,72,30.36,10.0,South,3.5,-,N/A,,Overcast,190,2013-02-01 11:35:00
5:55 AM,2.8,-4.4,72,30.35,10.0,South,4.6,-,N/A,,Overcast,190,2013-02-01 11:55:00
6:15 AM,3.2,-4.2,71,30.36,10.0,Calm,Calm,-,N/A,,Overcast,0,2013-02-01 12:15:00
6:35 AM,3.7,-4.2,70,30.36,10.0,South,4.6,-,N/A,,Overcast,180,2013-02-01 12:35:00
6:55 AM,3.9,-4.0,70,30.35,10.0,SSE,4.6,-,N/A,,Overcast,160,2013-02-01 12:55:00
7:15 AM,3.7,-4.0,70,30.35,10.0,SSE,5.8,-,N/A,,Mostly Cloudy,150,2013-02-01 13:15:00
7:35 AM,2.8,-4.0,73,30.34,10.0,SSE,5.8,-,N/A,,Scattered Clouds,150,2013-02-01 13:35:00
7:55 AM,2.8,-4.0,73,30.34,10.0,SE,5.8,-,N/A,,Mostly Cloudy,140,2013-02-01 13:55:00
8:15 AM,3.2,-2.4,78,30.33,10.0,SE,6.9,-,N/A,,Overcast,140,2013-02-01 14:15:00
8:35 AM,3.6,-2.6,76,30.32,10.0,SE,9.2,-,N/A,,Scattered Clouds,140,2013-02-01 14:35:00
8:55 AM,4.6,-3.1,70,30.32,10.0,SSE,9.2,-,N/A,,Clear,150,2013-02-01 14:55:00
9:15 AM,5.5,-2.6,69,30.32,10.0,SE,8.1,-,N/A,,Clear,130,2013-02-01 15:15:00
9:35 AM,5.9,-1.1,73,30.32,10.0,SE,8.1,-,N/A,,Clear,140,2013-02-01 15:35:00
10:15 AM,7.7,-0.9,68,30.30,10.0,SE,15.0,-,N/A,,Clear,140,2013-02-01 16:15:00
10:35 AM,8.4,-0.2,68,30.29,10.0,SE,11.5,-,N/A,,Scattered Clouds,140,2013-02-01 16:35:00
10:55 AM,9.3,0.5,67,30.28,10.0,SE,12.7,-,N/A,,Mostly Cloudy,140,2013-02-01 16:55:00
11:15 AM,10.6,1.9,68,30.26,10.0,SSE,11.5,-,N/A,,Overcast,150,2013-02-01 17:15:00
11:35 AM,11.8,3.0,68,30.24,10.0,SSE,11.5,19.6,N/A,,Overcast,150,2013-02-01 17:35:00
11:55 AM,13.8,4.6,67,30.23,10.0,SSE,11.5,18.4,N/A,,Overcast,160,2013-02-01 17:55:00
12:15 PM,15.6,6.1,66,30.22,10.0,SSE,11.5,16.1,N/A,,Mostly Cloudy,160,2013-02-01 18:15:00
12:35 PM,17.1,6.8,64,30.20,10.0,South,16.1,21.9,N/A,,Mostly Cloudy,170,2013-02-01 18:35:00
12:55 PM,17.6,7.7,65,30.19,10.0,South,12.7,19.6,N/A,,Overcast,170,2013-02-01 18:55:00
1:15 PM,19.2,10.4,69,30.18,10.0,South,18.4,23.0,N/A,,Overcast,170,2013-02-01 19:15:00
1:35 PM,21.2,12.4,69,30.16,10.0,South,18.4,24.2,N/A,,Overcast,180,2013-02-01 19:35:00
1:55 PM,22.8,13.5,67,30.14,10.0,South,17.3,24.2,N/A,,Overcast,180,2013-02-01 19:55:00
2:15 PM,24.3,14.9,68,30.14,10.0,South,21.9,27.6,N/A,,Overcast,180,2013-02-01 20:15:00
2:35 PM,25.3,15.6,67,30.13,10.0,South,16.1,-,N/A,,Overcast,180,2013-02-01 20:35:00
3:15 PM,26.1,15.1,63,30.11,10.0,South,18.4,26.5,N/A,,Overcast,190,2013-02-01 21:15:00
3:35 PM,26.2,15.6,64,30.11,10.0,South,19.6,26.5,N/A,,Mostly Cloudy,190,2013-02-01 21:35:00
3:55 PM,26.1,16.3,67,30.11,10.0,South,16.1,-,N/A,,Mostly Cloudy,180,2013-02-01 21:55:00
4:15 PM,26.6,15.6,63,30.11,10.0,South,15.0,24.2,N/A,,Mostly Cloudy,190,2013-02-01 22:15:00
4:35 PM,26.6,15.8,64,30.09,10.0,South,13.8,-,N/A,,Mostly Cloudy,190,2013-02-01 22:35:00
4:55 PM,26.4,16.3,66,30.08,10.0,South,16.1,-,N/A,,Scattered Clouds,180,2013-02-01 22:55:00
5:15 PM,25.7,16.7,69,30.07,10.0,South,16.1,-,N/A,,Scattered Clouds,180,2013-02-01 23:15:00
5:35 PM,25.7,16.7,69,30.07,10.0,South,18.4,-,N/A,,Scattered Clouds,180,2013-02-01 23:35:00
5:55 PM,25.3,16.7,70,30.07,10.0,South,16.1,-,N/A,,Clear,180,2013-02-01 23:55:00
6:15 PM,25.0,16.7,71,30.08,10.0,South,13.8,19.6,N/A,,Clear,180,2013-02-02 00:15:00
6:35 PM,25.2,16.7,70,30.08,10.0,South,13.8,-,N/A,,Clear,180,2013-02-02 00:35:00
6:55 PM,25.2,16.7,70,30.08,10.0,South,12.7,-,N/A,,Mostly Cloudy,180,2013-02-02 00:55:00
7:15 PM,24.8,16.7,71,30.08,10.0,South,11.5,-,N/A,,Mostly Cloudy,180,2013-02-02 01:15:00
7:35 PM,24.8,16.7,71,30.08,10.0,South,11.5,-,N/A,,Mostly Cloudy,180,2013-02-02 01:35:00
7:55 PM,24.8,16.7,71,30.08,10.0,South,11.5,-,N/A,,Mostly Cloudy,180,2013-02-02 01:55:00
8:15 PM,24.8,16.7,71,30.07,10.0,South,10.4,-,N/A,,Overcast,180,2013-02-02 02:15:00
8:35 PM,24.8,16.7,71,30.07,10.0,South,11.5,-,N/A,,Mostly Cloudy,180,2013-02-02 02:35:00
8:55 PM,25.5,16.7,69,30.07,10.0,South,13.8,-,N/A,,Overcast,190,2013-02-02 02:55:00
9:15 PM,25.7,17.2,70,30.06,10.0,South,13.8,17.3,N/A,,Overcast,180,2013-02-02 03:15:00
9:35 PM,25.7,17.2,70,30.06,10.0,South,13.8,-,N/A,,Overcast,190,2013-02-02 03:35:00
9:55 PM,25.7,17.4,71,30.06,10.0,South,10.4,-,N/A,,Overcast,180,2013-02-02 03:55:00
10:15 PM,25.5,17.2,71,30.06,10.0,South,10.4,-,N/A,,Scattered Clouds,180,2013-02-02 04:15:00
10:35 PM,25.5,17.1,70,30.06,10.0,South,12.7,16.1,N/A,,Clear,190,2013-02-02 04:35:00
10:55 PM,25.2,17.2,72,30.06,10.0,SSW,6.9,-,N/A,,Scattered Clouds,210,2013-02-02 04:55:00
11:15 PM,25.5,18.1,74,30.06,10.0,SSW,6.9,-,N/A,,Mostly Cloudy,200,2013-02-02 05:15:00
11:35 PM,25.7,18.5,74,30.06,10.0,Calm,Calm,-,N/A,,Overcast,0,2013-02-02 05:35:00
11:55 PM,26.2,18.5,73,30.06,10.0,SSW,3.5,-,N/A,,Overcast,210,2013-02-02 05:55:00